TimeCDT,TemperatureF,Dew PointF,Humidity,Sea Level PressureIn,VisibilityMPH,Wind Direction,Wind SpeedMPH,Gust SpeedMPH,PrecipitationIn,Events,Conditions,WindDirDegrees,DateUTC
12:15 AM,73.4,68.0,83,29.99,10.0,ESE,5.8,-,N/A,,Clear,110,2013-06-23 05:15:00
12:35 AM,73.4,68.0,83,29.99,10.0,ESE,3.5,-,N/A,,Clear,120,2013-06-23 05:35:00
12:55 AM,73.4,68.0,83,29.99,10.0,ESE,5.8,-,N/A,,Clear,110,2013-06-23 05:55:00
1:15 AM,73.4,68.0,83,29.98,10.0,ESE,5.8,-,N/A,,Clear,110,2013-06-23 06:15:00
1:35 AM,73.4,68.0,83,29.99,10.0,ESE,6.9,-,N/A,,Clear,110,2013-06-23 06:35:00
1:55 AM,73.4,68.0,83,29.98,10.0,ESE,5.8,-,N/A,,Clear,120,2013-06-23 06:55:00
2:15 AM,73.4,68.0,83,29.98,10.0,SE,6.9,-,N/A,,Clear,130,2013-06-23 07:15:00
2:35 AM,73.4,68.0,83,29.98,10.0,SE,6.9,-,N/A,,Clear,130,2013-06-23 07:35:00
2:55 AM,73.4,68.0,83,29.97,10.0,SE,5.8,-,N/A,,Clear,130,2013-06-23 07:55:00
3:15 AM,73.4,68.0,83,29.97,10.0,SE,6.9,-,N/A,,Clear,130,2013-06-23 08:15:00
3:35 AM,73.4,68.0,83,29.97,10.0,SE,6.9,-,N/A,,Clear,130,2013-06-23 08:35:00
3:55 AM,73.4,69.8,88,29.97,10.0,SE,6.9,-,N/A,,Clear,130,2013-06-23 08:55:00
4:15 AM,73.4,69.8,88,29.97,10.0,SE,6.9,-,N/A,,Clear,130,2013-06-23 09:15:00
4:35 AM,73.4,69.8,88,29.96,10.0,ESE,6.9,-,N/A,,Clear,120,2013-06-23 09:35:00
4:55 AM,71.6,69.8,94,29.96,10.0,SE,6.9,-,N/A,,Clear,130,2013-06-23 09:55:00
5:15 AM,71.6,69.8,94,29.97,10.0,SE,3.5,-,N/A,,Clear,130,2013-06-23 10:15:00
5:35 AM,71.6,69.8,94,29.98,10.0,SE,3.5,-,N/A,,Scattered Clouds,130,2013-06-23 10:35:00
5:55 AM,71.6,69.8,94,29.99,10.0,SE,4.6,-,N/A,,Scattered Clouds,130,2013-06-23 10:55:00
6:15 AM,71.6,69.8,94,29.98,10.0,SE,4.6,-,N/A,,Scattered Clouds,140,2013-06-23 11:15:00
6:35 AM,71.6,69.8,94,29.99,10.0,SSE,5.8,-,N/A,,Clear,150,2013-06-23 11:35:00
6:55 AM,73.4,69.8,88,30.00,10.0,SE,6.9,-,N/A,,Clear,140,2013-06-23 11:55:00
7:15 AM,73.4,69.8,88,30.00,10.0,SE,5.8,-,N/A,,Clear,140,2013-06-23 12:15:00
7:35 AM,75.2,69.8,83,30.00,10.0,SE,5.8,-,N/A,,Clear,140,2013-06-23 12:35:00
7:55 AM,77.0,69.8,78,30.00,10.0,SSE,8.1,-,N/A,,Clear,150,2013-06-23 12:55:00
8:15 AM,77.0,69.8,78,30.00,10.0,SSE,5.8,-,N/A,,Clear,150,2013-06-23 13:15:00
8:35 AM,78.8,69.8,74,30.01,10.0,SSE,8.1,-,N/A,,Clear,160,2013-06-23 13:35:00
8:55 AM,80.6,69.8,70,30.00,10.0,South,10.4,18.4,N/A,,Clear,170,2013-06-23 13:55:00
9:15 AM,80.6,69.8,70,30.01,10.0,South,12.7,18.4,N/A,,Clear,180,2013-06-23 14:15:00
9:35 AM,80.6,69.8,70,30.00,10.0,South,10.4,18.4,N/A,,Clear,170,2013-06-23 14:35:00
9:55 AM,82.4,69.8,66,29.99,10.0,South,10.4,19.6,N/A,,Clear,180,2013-06-23 14:55:00
10:15 AM,82.4,69.8,66,29.99,10.0,South,15.0,21.9,N/A,,Clear,170,2013-06-23 15:15:00
10:35 AM,82.4,69.8,66,29.99,10.0,South,16.1,21.9,N/A,,Clear,180,2013-06-23 15:35:00
10:55 AM,84.2,69.8,62,30.00,10.0,South,10.4,19.6,N/A,,Clear,170,2013-06-23 15:55:00
11:15 AM,84.2,69.8,62,29.99,10.0,South,10.4,21.9,N/A,,Clear,170,2013-06-23 16:15:00
11:35 AM,86.0,71.6,62,29.99,10.0,SSE,12.7,18.4,N/A,,Clear,160,2013-06-23 16:35:00
11:55 AM,86.0,69.8,58,29.99,10.0,SSE,10.4,20.7,N/A,,Clear,160,2013-06-23 16:55:00
12:15 PM,86.0,69.8,58,29.99,10.0,South,12.7,19.6,N/A,,Clear,190,2013-06-23 17:15:00
12:35 PM,86.0,69.8,58,29.99,10.0,South,13.8,-,N/A,,Clear,170,2013-06-23 17:35:00
12:55 PM,87.8,69.8,55,29.99,10.0,SSE,11.5,17.3,N/A,,Clear,150,2013-06-23 17:55:00
1:15 PM,87.8,69.8,55,29.99,10.0,South,12.7,16.1,N/A,,Clear,170,2013-06-23 18:15:00
1:35 PM,87.8,69.8,55,29.99,10.0,South,12.7,19.6,N/A,,Clear,170,2013-06-23 18:35:00
1:55 PM,87.8,69.8,55,29.99,10.0,SSE,8.1,18.4,N/A,,Clear,160,2013-06-23 18:55:00
2:15 PM,89.6,68.0,49,29.99,10.0,South,9.2,18.4,N/A,,Clear,170,2013-06-23 19:15:00
2:35 PM,89.6,68.0,49,29.98,10.0,South,13.8,19.6,N/A,,Clear,170,2013-06-23 19:35:00
2:55 PM,89.6,66.2,46,29.98,10.0,SSE,12.7,-,N/A,,Clear,160,2013-06-23 19:55:00
3:15 PM,89.6,64.4,43,29.98,10.0,South,12.7,19.6,N/A,,Clear,170,2013-06-23 20:15:00
3:35 PM,89.6,66.2,46,29.97,10.0,SSE,11.5,17.3,N/A,,Clear,160,2013-06-23 20:35:00
3:55 PM,89.6,66.2,46,29.96,10.0,SSE,10.4,18.4,N/A,,Clear,160,2013-06-23 20:55:00
4:15 PM,89.6,66.2,46,29.96,10.0,South,11.5,20.7,N/A,,Clear,170,2013-06-23 21:15:00
4:35 PM,89.6,64.4,43,29.96,10.0,SSE,10.4,18.4,N/A,,Clear,160,2013-06-23 21:35:00
4:55 PM,89.6,64.4,43,29.95,10.0,SSE,16.1,19.6,N/A,,Clear,160,2013-06-23 21:55:00
5:15 PM,89.6,64.4,43,29.94,10.0,South,11.5,17.3,N/A,,Clear,170,2013-06-23 22:15:00
5:35 PM,89.6,64.4,43,29.94,10.0,South,12.7,18.4,N/A,,Clear,170,2013-06-23 22:35:00
5:55 PM,89.6,66.2,46,29.93,10.0,South,12.7,19.6,N/A,,Clear,180,2013-06-23 22:55:00
6:15 PM,89.6,66.2,46,29.92,10.0,South,13.8,18.4,N/A,,Clear,170,2013-06-23 23:15:00
6:35 PM,87.8,68.0,52,29.92,10.0,South,10.4,17.3,N/A,,Clear,170,2013-06-23 23:35:00
6:55 PM,87.8,68.0,52,29.92,10.0,SSE,15.0,23.0,N/A,,Clear,160,2013-06-23 23:55:00
7:15 PM,87.8,68.0,52,29.92,10.0,South,10.4,17.3,N/A,,Clear,170,2013-06-24 00:15:00
7:35 PM,86.0,68.0,55,29.93,10.0,South,9.2,-,N/A,,Clear,170,2013-06-24 00:35:00
7:55 PM,86.0,68.0,55,29.94,10.0,SSE,6.9,-,N/A,,Clear,160,2013-06-24 00:55:00
8:15 PM,82.4,66.2,58,29.94,10.0,South,9.2,-,N/A,,Clear,170,2013-06-24 01:15:00
8:35 PM,82.4,66.2,58,29.95,10.0,SSE,5.8,-,N/A,,Clear,160,2013-06-24 01:35:00
8:55 PM,80.6,66.2,61,29.96,10.0,SSE,5.8,-,N/A,,Clear,150,2013-06-24 01:55:00
9:15 PM,80.6,66.2,61,29.96,10.0,SSE,5.8,-,N/A,,Clear,160,2013-06-24 02:15:00
9:35 PM,80.6,68.0,65,29.96,10.0,SSE,6.9,-,N/A,,Clear,160,2013-06-24 02:35:00
9:55 PM,78.8,68.0,69,29.97,10.0,SSE,5.8,-,N/A,,Clear,160,2013-06-24 02:55:00
10:15 PM,78.8,68.0,69,29.98,10.0,SSE,4.6,-,N/A,,Clear,150,2013-06-24 03:15:00
10:35 PM,78.8,68.0,69,29.99,10.0,SSE,5.8,-,N/A,,Clear,150,2013-06-24 03:35:00
10:55 PM,78.8,68.0,69,29.99,10.0,SSE,5.8,-,N/A,,Clear,160,2013-06-24 03:55:00
11:15 PM,78.8,68.0,69,29.99,10.0,SSE,8.1,-,N/A,,Clear,150,2013-06-24 04:15:00
11:35 PM,77.0,68.0,74,29.99,10.0,SSE,5.8,-,N/A,,Clear,150,2013-06-24 04:35:00
11:55 PM,77.0,68.0,74,29.99,10.0,SE,4.6,-,N/A,,Clear,140,2013-06-24 04:55:00